Time,TemperatureF,DewpointF,PressureIn,WindDirection,WindDirectionDegrees,WindSpeedMPH,WindSpeedGustMPH,Humidity,HourlyPrecipIn,Conditions,Clouds,dailyrainin,SolarRadiationWatts/m^2,SoftwareType,DateUTC
2013-05-21 00:03:00,79.0,73.0,-100.00,ESE,116,4.0,10.0,82,0.00,,,0.00,0.000000,,2013-05-21 04:03:00,
2013-05-21 00:13:00,79.0,73.0,-100.00,ESE,116,4.0,10.0,82,0.00,,,0.00,0.000000,,2013-05-21 04:13:00,
2013-05-21 00:23:00,79.0,73.0,-100.00,ESE,116,4.0,10.0,82,0.00,,,0.00,0.000000,,2013-05-21 04:23:00,
2013-05-21 00:33:00,79.0,73.0,-100.00,ESE,116,4.0,10.0,82,0.00,,,0.00,0.000000,,2013-05-21 04:33:00,
2013-05-21 01:02:00,79.0,72.0,-100.00,ESE,119,5.0,13.0,80,0.00,,,0.00,0.000000,,2013-05-21 05:02:00,
2013-05-21 01:12:00,79.0,72.0,-100.00,ESE,119,5.0,13.0,80,0.00,,,0.00,0.000000,,2013-05-21 05:12:00,
2013-05-21 01:22:00,79.0,72.0,-100.00,ESE,119,5.0,13.0,80,0.00,,,0.00,0.000000,,2013-05-21 05:22:00,
2013-05-21 01:32:00,79.0,72.0,-100.00,ESE,119,5.0,13.0,80,0.00,,,0.00,0.000000,,2013-05-21 05:32:00,
2013-05-21 01:52:00,79.0,72.0,-100.00,ESE,118,7.0,15.0,79,0.00,,,0.00,0.000000,,2013-05-21 05:52:00,
2013-05-21 02:02:00,79.0,72.0,-100.00,ESE,118,7.0,15.0,79,0.00,,,0.00,0.000000,,2013-05-21 06:02:00,
2013-05-21 02:12:00,79.0,72.0,-100.00,ESE,118,7.0,15.0,79,0.00,,,0.00,0.000000,,2013-05-21 06:12:00,
2013-05-21 02:21:00,79.0,72.0,-100.00,ESE,118,7.0,15.0,79,0.00,,,0.00,0.000000,,2013-05-21 06:21:00,
2013-05-21 02:32:00,79.0,72.0,-100.00,ESE,118,7.0,15.0,79,0.00,,,0.00,0.000000,,2013-05-21 06:32:00,
2013-05-21 02:52:00,79.0,72.0,-100.00,ESE,111,5.0,13.0,80,0.00,,,0.00,0.000000,,2013-05-21 06:52:00,
2013-05-21 03:01:00,79.0,72.0,-100.00,ESE,111,5.0,13.0,80,0.00,,,0.00,0.000000,,2013-05-21 07:01:00,
2013-05-21 03:11:00,79.0,72.0,-100.00,ESE,111,5.0,13.0,80,0.00,,,0.00,0.000000,,2013-05-21 07:11:00,
2013-05-21 03:22:00,79.0,72.0,-100.00,ESE,111,5.0,13.0,80,0.00,,,0.00,0.000000,,2013-05-21 07:22:00,
2013-05-21 03:31:00,79.0,72.0,-100.00,ESE,111,5.0,13.0,80,0.00,,,0.00,0.000000,,2013-05-21 07:31:00,
2013-05-21 05:01:00,78.0,71.0,-100.00,ESE,123,6.0,13.0,79,-99.99,,,0.00,0.000000,,2013-05-21 09:01:00,
2013-05-21 05:11:00,78.0,71.0,-100.00,ESE,123,6.0,13.0,79,-99.99,,,0.00,0.000000,,2013-05-21 09:11:00,
2013-05-21 05:21:00,78.0,71.0,-100.00,ESE,123,6.0,13.0,79,-99.99,,,0.00,0.000000,,2013-05-21 09:21:00,
2013-05-21 05:33:00,78.0,71.0,-100.00,ESE,123,6.0,13.0,79,-99.99,,,0.00,0.000000,,2013-05-21 09:33:00,
2013-05-21 05:53:00,78.0,71.0,-100.00,SE,125,5.0,10.0,78,0.00,,,0.00,0.000000,,2013-05-21 09:53:00,
2013-05-21 06:03:00,78.0,71.0,-100.00,SE,125,5.0,10.0,78,0.00,,,0.00,0.000000,,2013-05-21 10:03:00,
2013-05-21 06:12:00,78.0,71.0,-100.00,SE,125,5.0,10.0,78,0.00,,,0.00,0.000000,,2013-05-21 10:12:00,
2013-05-21 06:22:00,78.0,71.0,-100.00,SE,125,5.0,10.0,78,0.00,,,0.00,0.000000,,2013-05-21 10:22:00,
2013-05-21 06:32:00,78.0,71.0,-100.00,SE,125,5.0,10.0,78,0.00,,,0.00,0.000000,,2013-05-21 10:32:00,
2013-05-21 07:02:00,77.0,70.0,-100.00,ESE,121,4.0,9.0,80,0.00,,,0.00,0.000000,,2013-05-21 11:02:00,
2013-05-21 07:12:00,77.0,70.0,-100.00,ESE,121,4.0,9.0,80,0.00,,,0.00,0.000000,,2013-05-21 11:12:00,
2013-05-21 07:22:00,77.0,70.0,-100.00,ESE,121,4.0,9.0,80,0.00,,,0.00,0.000000,,2013-05-21 11:22:00,
2013-05-21 07:32:00,77.0,70.0,-100.00,ESE,121,4.0,9.0,80,0.00,,,0.00,0.000000,,2013-05-21 11:32:00,
2013-05-21 08:01:00,80.0,73.0,-100.00,ESE,115,4.0,9.0,79,0.00,,,0.00,46.000000,,2013-05-21 12:01:00,
2013-05-21 08:11:00,80.0,73.0,-100.00,ESE,115,4.0,9.0,79,0.00,,,0.00,46.000000,,2013-05-21 12:11:00,
2013-05-21 08:21:00,80.0,73.0,-100.00,ESE,115,4.0,9.0,79,0.00,,,0.00,46.000000,,2013-05-21 12:21:00,
2013-05-21 08:32:00,80.0,73.0,-100.00,ESE,115,4.0,9.0,79,0.00,,,0.00,46.000000,,2013-05-21 12:32:00,
2013-05-21 09:01:00,83.0,74.0,-100.00,ESE,118,7.0,12.0,74,0.02,,,0.02,238.000000,,2013-05-21 13:01:00,
2013-05-21 09:12:00,83.0,74.0,-100.00,ESE,118,7.0,12.0,74,0.02,,,0.02,238.000000,,2013-05-21 13:12:00,
2013-05-21 09:22:00,83.0,74.0,-100.00,ESE,118,7.0,12.0,74,0.02,,,0.02,238.000000,,2013-05-21 13:22:00,
2013-05-21 09:32:00,83.0,74.0,-100.00,ESE,118,7.0,12.0,74,0.02,,,0.02,238.000000,,2013-05-21 13:32:00,
2013-05-21 10:02:00,84.0,74.0,-100.00,ESE,102,5.0,11.0,71,0.01,,,0.03,445.000000,,2013-05-21 14:02:00,
2013-05-21 10:11:00,84.0,74.0,-100.00,ESE,102,5.0,11.0,71,0.01,,,0.03,445.000000,,2013-05-21 14:11:00,
2013-05-21 10:21:00,84.0,74.0,-100.00,ESE,102,5.0,11.0,71,0.01,,,0.03,445.000000,,2013-05-21 14:21:00,
2013-05-21 10:32:00,84.0,74.0,-100.00,ESE,102,5.0,11.0,71,0.01,,,0.03,445.000000,,2013-05-21 14:32:00,
2013-05-21 11:01:00,85.0,75.0,-100.00,East,96,5.0,11.0,71,0.00,,,0.03,536.000000,,2013-05-21 15:01:00,
2013-05-21 11:11:00,85.0,75.0,-100.00,East,96,5.0,11.0,71,0.00,,,0.03,536.000000,,2013-05-21 15:11:00,
2013-05-21 11:21:00,85.0,75.0,-100.00,East,96,5.0,11.0,71,0.00,,,0.03,536.000000,,2013-05-21 15:21:00,
2013-05-21 11:33:00,85.0,75.0,-100.00,East,96,5.0,11.0,71,0.00,,,0.03,536.000000,,2013-05-21 15:33:00,
2013-05-21 12:03:00,80.0,74.0,-100.00,East,82,5.0,13.0,83,0.04,,,0.07,195.000000,,2013-05-21 16:03:00,
2013-05-21 12:13:00,80.0,74.0,-100.00,East,82,5.0,13.0,83,0.04,,,0.07,195.000000,,2013-05-21 16:13:00,
2013-05-21 12:23:00,80.0,74.0,-100.00,East,82,5.0,13.0,83,0.04,,,0.07,195.000000,,2013-05-21 16:23:00,
2013-05-21 12:32:00,80.0,74.0,-100.00,East,82,5.0,13.0,83,0.04,,,0.07,195.000000,,2013-05-21 16:32:00,
2013-05-21 13:02:00,80.0,75.0,-100.00,SE,132,5.0,10.0,84,0.03,,,0.10,157.000000,,2013-05-21 17:02:00,
2013-05-21 13:12:00,80.0,75.0,-100.00,SE,132,5.0,10.0,84,0.03,,,0.10,157.000000,,2013-05-21 17:12:00,
2013-05-21 13:23:00,80.0,75.0,-100.00,SE,132,5.0,10.0,84,0.03,,,0.10,157.000000,,2013-05-21 17:23:00,
2013-05-21 13:33:00,80.0,75.0,-100.00,SE,132,5.0,10.0,84,0.03,,,0.10,157.000000,,2013-05-21 17:33:00,
2013-05-21 13:52:00,82.0,74.0,-100.00,East,100,6.0,13.0,77,0.00,,,0.10,507.000000,,2013-05-21 17:52:00,
2013-05-21 14:02:00,82.0,74.0,-100.00,East,100,6.0,13.0,77,0.00,,,0.10,507.000000,,2013-05-21 18:02:00,
2013-05-21 14:13:00,82.0,74.0,-100.00,East,100,6.0,13.0,77,0.00,,,0.10,507.000000,,2013-05-21 18:13:00,
2013-05-21 14:22:00,82.0,74.0,-100.00,East,100,6.0,13.0,77,0.00,,,0.10,507.000000,,2013-05-21 18:22:00,
2013-05-21 14:32:00,82.0,74.0,-100.00,East,100,6.0,13.0,77,0.00,,,0.10,507.000000,,2013-05-21 18:32:00,
2013-05-21 15:02:00,81.0,76.0,-100.00,SE,124,5.0,10.0,85,0.08,,,0.18,173.000000,,2013-05-21 19:02:00,
2013-05-21 15:11:00,81.0,76.0,-100.00,SE,124,5.0,10.0,85,0.08,,,0.18,173.000000,,2013-05-21 19:11:00,
2013-05-21 15:22:00,81.0,76.0,-100.00,SE,124,5.0,10.0,85,0.08,,,0.18,173.000000,,2013-05-21 19:22:00,
2013-05-21 15:32:00,81.0,76.0,-100.00,SE,124,5.0,10.0,85,0.08,,,0.18,173.000000,,2013-05-21 19:32:00,
2013-05-21 16:03:00,85.0,75.0,-100.00,East,86,6.0,12.0,72,0.00,,,0.18,573.000000,,2013-05-21 20:03:00,
2013-05-21 16:11:00,85.0,75.0,-100.00,East,86,6.0,12.0,72,0.00,,,0.18,573.000000,,2013-05-21 20:11:00,
2013-05-21 16:22:00,85.0,75.0,-100.00,East,86,6.0,12.0,72,0.00,,,0.18,573.000000,,2013-05-21 20:22:00,
2013-05-21 16:32:00,85.0,75.0,-100.00,East,86,6.0,12.0,72,0.00,,,0.18,573.000000,,2013-05-21 20:32:00,
2013-05-21 16:52:00,86.0,73.0,-100.00,East,101,6.0,12.0,66,0.00,,,0.18,541.000000,,2013-05-21 20:52:00,
2013-05-21 17:02:00,86.0,73.0,-100.00,East,101,6.0,12.0,66,0.00,,,0.18,541.000000,,2013-05-21 21:02:00,
2013-05-21 17:11:00,86.0,73.0,-100.00,East,101,6.0,12.0,66,0.00,,,0.18,541.000000,,2013-05-21 21:11:00,
2013-05-21 17:22:00,86.0,73.0,-100.00,East,101,6.0,12.0,66,0.00,,,0.18,541.000000,,2013-05-21 21:22:00,
2013-05-21 17:33:00,86.0,73.0,-100.00,East,101,6.0,12.0,66,0.00,,,0.18,541.000000,,2013-05-21 21:33:00,
2013-05-21 18:02:00,85.0,72.0,-100.00,East,85,7.0,12.0,65,0.00,,,0.18,449.000000,,2013-05-21 22:02:00,
2013-05-21 18:13:00,85.0,72.0,-100.00,East,85,7.0,12.0,65,0.00,,,0.18,449.000000,,2013-05-21 22:13:00,
2013-05-21 18:23:00,85.0,72.0,-100.00,East,85,7.0,12.0,65,0.00,,,0.18,449.000000,,2013-05-21 22:23:00,
2013-05-21 18:33:00,85.0,72.0,-100.00,East,85,7.0,12.0,65,0.00,,,0.18,449.000000,,2013-05-21 22:33:00,
2013-05-21 18:53:00,84.0,72.0,-100.00,ESE,113,5.0,9.0,68,0.00,,,0.18,294.000000,,2013-05-21 22:53:00,
2013-05-21 19:02:00,84.0,72.0,-100.00,ESE,113,5.0,9.0,68,0.00,,,0.18,294.000000,,2013-05-21 23:02:00,
2013-05-21 19:12:00,84.0,72.0,-100.00,ESE,113,5.0,9.0,68,0.00,,,0.18,294.000000,,2013-05-21 23:12:00,
2013-05-21 19:22:00,84.0,72.0,-100.00,ESE,113,5.0,9.0,68,0.00,,,0.18,294.000000,,2013-05-21 23:22:00,
2013-05-21 19:32:00,84.0,72.0,-100.00,ESE,113,5.0,9.0,68,0.00,,,0.18,294.000000,,2013-05-21 23:32:00,
2013-05-21 20:01:00,81.0,73.0,-100.00,ESE,116,6.0,12.0,77,0.00,,,0.18,127.000000,,2013-05-22 00:01:00,
2013-05-21 20:11:00,81.0,73.0,-100.00,ESE,116,6.0,12.0,77,0.00,,,0.18,127.000000,,2013-05-22 00:11:00,
2013-05-21 20:21:00,81.0,73.0,-100.00,ESE,116,6.0,12.0,77,0.00,,,0.18,127.000000,,2013-05-22 00:21:00,
2013-05-21 20:32:00,81.0,73.0,-100.00,ESE,116,6.0,12.0,77,0.00,,,0.18,127.000000,,2013-05-22 00:32:00,
2013-05-21 20:52:00,79.0,73.0,-100.00,SE,137,4.0,10.0,82,0.00,,,0.18,7.000000,,2013-05-22 00:52:00,
2013-05-21 21:01:00,79.0,73.0,-100.00,SE,137,4.0,10.0,82,0.00,,,0.18,7.000000,,2013-05-22 01:01:00,
2013-05-21 21:11:00,79.0,73.0,-100.00,SE,137,4.0,10.0,82,0.00,,,0.18,7.000000,,2013-05-22 01:11:00,
2013-05-21 21:22:00,79.0,73.0,-100.00,SE,137,4.0,10.0,82,0.00,,,0.18,7.000000,,2013-05-22 01:22:00,
2013-05-21 21:32:00,79.0,73.0,-100.00,SE,137,4.0,10.0,82,0.00,,,0.18,7.000000,,2013-05-22 01:32:00,
2013-05-21 21:52:00,79.0,73.0,-100.00,SE,140,4.0,9.0,82,0.00,,,0.18,0.000000,,2013-05-22 01:52:00,
2013-05-21 22:02:00,79.0,73.0,-100.00,SE,140,4.0,9.0,82,0.00,,,0.18,0.000000,,2013-05-22 02:02:00,
2013-05-21 22:12:00,79.0,73.0,-100.00,SE,140,4.0,9.0,82,0.00,,,0.18,0.000000,,2013-05-22 02:12:00,
2013-05-21 22:22:00,79.0,73.0,-100.00,SE,140,4.0,9.0,82,0.00,,,0.18,0.000000,,2013-05-22 02:22:00,
2013-05-21 22:32:00,79.0,73.0,-100.00,SE,140,4.0,9.0,82,0.00,,,0.18,0.000000,,2013-05-22 02:32:00,
2013-05-21 23:01:00,79.0,73.0,-100.00,ESE,120,5.0,10.0,81,0.00,,,0.18,0.000000,,2013-05-22 03:01:00,
2013-05-21 23:11:00,79.0,73.0,-100.00,ESE,120,5.0,10.0,81,0.00,,,0.18,0.000000,,2013-05-22 03:11:00,
2013-05-21 23:22:00,79.0,73.0,-100.00,ESE,120,5.0,10.0,81,0.00,,,0.18,0.000000,,2013-05-22 03:22:00,
2013-05-21 23:33:00,79.0,73.0,-100.00,ESE,120,5.0,10.0,81,0.00,,,0.18,0.000000,,2013-05-22 03:33:00,
2013-05-21 23:53:00,79.0,73.0,-100.00,SE,137,4.0,9.0,83,0.00,,,0.18,0.000000,,2013-05-22 03:53:00,